NOAA 16 DEB

Satellite information

Favourite Embed

Satellite Type and Status

DEBRISIN ORBIT

Key statistics

Satellite NOAA 16 DEB at a glance.

Uptime

9110

Days in orbit

Revolutions

≈ 14.2

Per day

Orbit

SSO

Sun Synchronous Orbit

Inclination

98.9

Latest

Satellite identification and parameters

Extended collection of information and parameters for NOAA 16 DEB.

Object identification

Identified? True

Debris? True

Object name: NOAA 16 DEB

International designator: 2000-055SM

Object number (NORAD): 42393

Object ID (CCSDS): 42393

Country: UNITED STATES OF AMERICA (US)

Current information (Y/N): Y

RCS size: SMALL

Orbital parameters

Period: 101.127 minutes

Inclination: 98.9265 deg

SMA: 7190.133 km

Apoapsis: 840.112 km

Periapsis: 783.884 km

RAAN: 323.7812 deg

Eccentricy: 0.00391014

Argument of periapsis: 26.9371 deg

Mean anomaly: 333.3826 deg

Mean motion: 14.23958651 rev/day

Mean motion (dot): 0.00007893 rev/day2

B* drag term: 0.0034299334 1/REarth

Two-line elements (TLE)

Creation date: Aug. 29, 2025, 9:54 a.m.

Reference frame: TEME

Reference center: EARTH

Epoch: Aug. 29, 2025, 4:02 a.m. UTC

TLE line 0: 0 NOAA 16 DEB

TLE line 1: 1 42393U 00055SM 25241.16834589 .00007893 00000-0 34299-2 0 9995

TLE line 2: 2 42393 98.9265 323.7812 0039101 26.9371 333.3826 14.23958651487629

Live tracking on map

Real-time ground track for satellite NOAA 16 DEB.

In-orbit conjunctions

A list of the most updated potential collisions computed for object NOAA 16 DEB.

Target Orbit TCA Probability of collision Miss distance Type
SL-3 R/B LEO 2025-05-05 04:47:43 0.0003887285 97.0 (m) ROCKET BODY
CZ-6A DEB LEO 2025-02-17 06:45:05 0.0004664056 225.0 (m) DEBRIS
FENGYUN 1C DEB SSO 2024-11-09 01:26:32 0.0001164864 299.0 (m) DEBRIS

Associated space launch

The NOAA K, L and M POES satellites begin the fifth generation of improved environmental monitoring in support of NOAA missions. The instrument payload has significant improvements and additions/deletions. The instrument changes have effected the spacecraft subsystems and data formats.

NOAA 16 DEB was lifted into orbit during the mission ‘Titan II SLV | NOAA 16’, on board a Titan II SLV space rocket.

The launch took place on Sept. 21, 2000, 10:22 a.m. from Space Launch Complex 4W.

For more information about the launch, click the button.

Launch to space Titan II SLV | NOAA 16
Titan II SLV | NOAA 16

Agency: N/A

Status: Launch Successful

Launch date: Sept. 21, 2000, 10:22 a.m. UTC

Rocket: Titan II SLV

Launch pad: Space Launch Complex 4W

Location: Vandenberg SFB, CA, USA

...

Latest news about this satellite

There are no fresh news available about this satellite. Check back as we update our databases every day.


Newsletter sign-up

Weekly statistics, charts and insights to help you stay on top of the space industry.